Location: Kott?ru
(16.6209°N, 80.6208°E)
Time: 01:22:06
(UTC+00:00)

CZ-2D R/B - Pass Details

Date: 18 September 2020
Orbit: 520 x 539 km, 97.4° (Epoch: 26 October)

Event Time Altitude Azimuth Distance (km) Brightness Sun altitude
Rises 13:20:53 0° 170° (S) 2,672 6.7 -11.4°
Reaches altitude 10° 13:22:59 10° 170° (S) 1,785 5.8 -11.9°
Maximum altitude 13:26:51 85° 256° (WSW) 543 3.3 -12.8°
Drops below altitude 10° 13:30:44 10° 348° (NNW) 1,794 6.2 -13.7°
Sets 13:32:51 0° 349° (NNW) 2,686 7.1 -14.2°
